NORTHEAST SUFFOLK  -  Winter Weather Advisory Winter Weather Advisory        NORTHERN NASSAU  -  Winter Weather Advisory Winter Weather Advisory        NORTHERN QUEENS  -  Winter Weather Advisory Winter Weather Advisory        NORTHWEST SUFFOLK  -  Winter Weather Advisory Winter Weather Advisory        SOUTHEAST SUFFOLK  -  Winter Weather Advisory Winter Weather Advisory        SOUTHERN NASSAU  -  Winter Weather Advisory Winter Weather Advisory        SOUTHERN QUEENS  -  Winter Weather Advisory Winter Weather Advisory        SOUTHWEST SUFFOLK  -  Winter Weather Advisory Winter Weather Advisory      

Active alerts

Northern Queens
  Details for Northern Queens Winter Weather Advisory
Southern Queens
  Details for Southern Queens Winter Weather Advisory
Northern Nassau
  Details for Northern Nassau Winter Weather Advisory
Southern Nassau
  Details for Southern Nassau Winter Weather Advisory
Northwest Suffolk
  Details for Northwest Suffolk Winter Weather Advisory
Southwest Suffolk
  Details for Southwest Suffolk Winter Weather Advisory
Northeast Suffolk
  Details for Northeast Suffolk Winter Weather Advisory
Southeast Suffolk
  Details for Southeast Suffolk Winter Weather Advisory


WXM80 ListenWXM80 Stop

You find our weather info also at:

UK Metoffice

WeatherCloud

Weather Underground

Northeastern Weather Network

AWEKAS

Citizen Weather Observer Program (CWOP)

HAMweather, WeatherForYou, PWS Weather


Weather Underground History page Text

Daily Summary for October 23, 2017 Units:  Metric    English   Both
« Previous Day
Next Day »
Daily Weekly Monthly Yearly Custom
  High: Low: Average:
Temperature: 24.6 °C 12.9 °C 18.7 °C
Dew Point: 19.6 °C 11.8 °C 16.6 °C
Humidity: 98 % 70 % 88 %
Wind Speed: 12.6 km/h 0 km/h 3.4 km/h
Wind Gust: 29 km/h - -
Wind:- - SSE
Pressure: 1028 hPa 1016.1 hPa -
Precipitation: 0 mm    
Historical Graphs
 
 
Tabular Data for October 23, 2017
Time Temperature Dew Point Pressure Wind Wind Speed Wind Gust Humidity Rainfall Rate (Hourly)
00:03 13.6 °C 12.4 °C 1028 hPa Calm     93 % 0 mm
00:08 13.6 °C 12.4 °C 1028 hPa Calm     93 % 0 mm
00:13 13.6 °C 12.4 °C 1027.7 hPa Calm     93 % 0 mm
00:18 13.6 °C 12.4 °C 1028 hPa Calm     93 % 0 mm
00:23 13.5 °C 12.4 °C 1028 hPa Calm     93 % 0 mm
00:28 13.5 °C 12.4 °C 1027.7 hPa Calm     93 % 0 mm
00:33 13.4 °C 12.3 °C 1027.7 hPa Calm     93 % 0 mm
00:38 13.4 °C 12.3 °C 1027.7 hPa Calm     93 % 0 mm
00:43 13.4 °C 12.3 °C 1027.7 hPa Calm     93 % 0 mm
00:48 13.4 °C 12.3 °C 1027.7 hPa Calm     93 % 0 mm
00:53 13.3 °C 12.2 °C 1027.7 hPa Calm     93 % 0 mm
00:58 13.3 °C 12.2 °C 1027.7 hPa Calm     93 % 0 mm
01:03 13.3 °C 12.2 °C 1027.7 hPa Calm     93 % 0 mm
01:08 13.2 °C 12.1 °C 1027.7 hPa Calm     93 % 0 mm
01:13 13.2 °C 12.1 °C 1027.7 hPa Calm     93 % 0 mm
01:18 13.2 °C 12.1 °C 1027.7 hPa Calm     93 % 0 mm
01:23 13.2 °C 12.1 °C 1027.3 hPa Calm     93 % 0 mm
01:28 13.1 °C 12 °C 1027.3 hPa Calm     93 % 0 mm
01:34 13.1 °C 12 °C 1027.7 hPa Calm     93 % 0 mm
01:39 13.1 °C 11.9 °C 1027.3 hPa Calm     93 % 0 mm
01:44 13.1 °C 11.9 °C 1027.7 hPa Calm     93 % 0 mm
01:49 13.1 °C 11.9 °C 1027.3 hPa Calm     93 % 0 mm
01:54 13 °C 11.9 °C 1027.3 hPa Calm     93 % 0 mm
01:59 12.9 °C 11.8 °C 1027.3 hPa SE 0.2 km/h 1.9 km/h 93 % 0 mm
02:04 12.9 °C 11.8 °C 1028 hPa SE 1.9 km/h 5.6 km/h 93 % 0 mm
02:09 12.9 °C 11.8 °C 1028 hPa Calm   3.7 km/h 93 % 0 mm
02:14 13.1 °C 12.1 °C 1028 hPa Calm   1.9 km/h 94 % 0 mm
02:19 13.2 °C 12.4 °C 1027.3 hPa Calm   3.7 km/h 95 % 0 mm
02:24 13.4 °C 12.8 °C 1028 hPa SE 1.3 km/h 5.6 km/h 96 % 0 mm
02:29 13.8 °C 13.2 °C 1028 hPa SE 0.5 km/h 1.9 km/h 96 % 0 mm
02:34 14.1 °C 13.4 °C 1028 hPa SE 1 km/h 3.7 km/h 96 % 0 mm
02:39 14.4 °C 13.9 °C 1027.7 hPa SE 1.9 km/h 5.6 km/h 97 % 0 mm
02:44 14.7 °C 14.2 °C 1027.7 hPa SE 3.4 km/h 5.6 km/h 97 % 0 mm
02:50 14.9 °C 14.4 °C 1027.7 hPa SSE 3.4 km/h 5.6 km/h 97 % 0 mm
02:55 15.1 °C 14.6 °C 1027.3 hPa SE 2.4 km/h 6.4 km/h 97 % 0 mm
03:00 15.2 °C 14.7 °C 1027.3 hPa SE 5.1 km/h 9.7 km/h 97 % 0 mm
03:05 15.3 °C 14.8 °C 1026.6 hPa SE 5.5 km/h 8 km/h 97 % 0 mm
03:10 15.3 °C 14.8 °C 1026.6 hPa SE 2.1 km/h 5.6 km/h 97 % 0 mm
03:15 15.3 °C 14.8 °C 1026.6 hPa SSE 2.9 km/h 5.6 km/h 97 % 0 mm
03:20 15.3 °C 14.8 °C 1026.6 hPa SE 6.4 km/h 11.3 km/h 97 % 0 mm
03:25 15.3 °C 14.8 °C 1026.6 hPa SE 3.5 km/h 4.8 km/h 97 % 0 mm
03:30 15.3 °C 14.8 °C 1026.6 hPa SSE 3.5 km/h 5.6 km/h 97 % 0 mm
03:35 15.3 °C 14.8 °C 1026.6 hPa ESE 2.9 km/h 6.4 km/h 97 % 0 mm
03:40 15.3 °C 14.8 °C 1026.6 hPa SE 1.9 km/h 7.4 km/h 97 % 0 mm
03:45 15.3 °C 14.8 °C 1026.6 hPa SE 3.4 km/h 5.6 km/h 97 % 0 mm
03:51 15.3 °C 14.8 °C 1026.3 hPa SSE 1.6 km/h 4.8 km/h 97 % 0 mm
03:56 15.3 °C 14.8 °C 1026.3 hPa Calm   8 km/h 97 % 0 mm
04:01 15.2 °C 14.7 °C 1026.3 hPa SE 0.2 km/h 1.9 km/h 97 % 0 mm
04:06 15.2 °C 14.7 °C 1026.6 hPa Calm   4.8 km/h 97 % 0 mm
04:11 15.1 °C 14.6 °C 1026.6 hPa SE 1.6 km/h 4.8 km/h 97 % 0 mm
04:16 15.1 °C 14.6 °C 1026.3 hPa SE 1.6 km/h 4.8 km/h 97 % 0 mm
04:21 15.1 °C 14.6 °C 1026.3 hPa Calm   3.2 km/h 97 % 0 mm
04:26 15.1 °C 14.6 °C 1026.3 hPa Calm   1.6 km/h 97 % 0 mm
04:31 15.1 °C 14.6 °C 1026.3 hPa Calm   1.6 km/h 97 % 0 mm
04:36 15.1 °C 14.6 °C 1026.3 hPa Calm     97 % 0 mm
04:41 15 °C 14.6 °C 1026.6 hPa Calm   1.9 km/h 97 % 0 mm
04:46 15.1 °C 14.6 °C 1026.3 hPa Calm   1.6 km/h 97 % 0 mm
04:51 15.1 °C 14.6 °C 1026.3 hPa Calm     97 % 0 mm
04:56 15.1 °C 14.6 °C 1026.6 hPa Calm     97 % 0 mm
05:01 15.1 °C 14.6 °C 1026.6 hPa Calm     97 % 0 mm
05:06 15.1 °C 14.6 °C 1026.3 hPa Calm     97 % 0 mm
05:11 15.2 °C 14.7 °C 1026.6 hPa Calm     97 % 0 mm
05:16 15.2 °C 14.7 °C 1026.3 hPa Calm     97 % 0 mm
05:21 15.3 °C 14.9 °C 1026.3 hPa Calm     98 % 0 mm
05:23 15.3 °C 15 °C 1026.3 hPa Calm     98 % 0 mm
05:28 15.3 °C 15 °C 1026.3 hPa Calm     98 % 0 mm
05:33 15.3 °C 15 °C 1026.3 hPa SE 0.2 km/h   98 % 0 mm
05:38 15.3 °C 15 °C 1026.3 hPa Calm     98 % 0 mm
05:43 15.3 °C 15 °C 1026.3 hPa Calm   1.9 km/h 98 % 0 mm
05:48 15.3 °C 15 °C 1026.3 hPa Calm     98 % 0 mm
05:53 15.3 °C 14.9 °C 1026.3 hPa Calm     98 % 0 mm
05:58 15.3 °C 14.9 °C 1026.3 hPa Calm     98 % 0 mm
06:03 15.3 °C 14.9 °C 1026.3 hPa Calm     98 % 0 mm
06:08 15.3 °C 14.9 °C 1026.3 hPa Calm     98 % 0 mm
06:13 15.3 °C 14.9 °C 1026.3 hPa Calm     98 % 0 mm
06:18 15.3 °C 14.9 °C 1026.6 hPa Calm     98 % 0 mm
06:23 15.3 °C 15 °C 1026.3 hPa SE 0.8 km/h 5.6 km/h 98 % 0 mm
06:28 15.3 °C 15 °C 1026.3 hPa Calm     98 % 0 mm
06:33 15.3 °C 15 °C 1026.3 hPa Calm     98 % 0 mm
06:38 15.3 °C 15 °C 1026 hPa Calm     98 % 0 mm
06:43 15.3 °C 15 °C 1026 hPa Calm     98 % 0 mm
06:48 15.3 °C 14.9 °C 1026.3 hPa Calm     98 % 0 mm
06:53 15.3 °C 14.8 °C 1026 hPa Calm     97 % 0 mm
06:58 15.3 °C 14.8 °C 1026 hPa Calm     97 % 0 mm
07:03 15.3 °C 14.8 °C 1026 hPa Calm     97 % 0 mm
07:08 15.3 °C 15 °C 1026 hPa SE 1.9 km/h 3.7 km/h 98 % 0 mm
07:13 15.4 °C 15.1 °C 1026 hPa SE 1.6 km/h 5.6 km/h 98 % 0 mm
07:18 15.5 °C 15.2 °C 1026 hPa SE 2.9 km/h 5.6 km/h 98 % 0 mm
07:23 15.7 °C 15.3 °C 1026 hPa SE 2.1 km/h 3.7 km/h 98 % 0 mm
07:29 15.8 °C 15.4 °C 1026 hPa SSE 1.1 km/h 5.6 km/h 98 % 0 mm
07:34 15.8 °C 15.5 °C 1026 hPa SSE 1.6 km/h 5.6 km/h 98 % 0 mm
07:39 15.8 °C 15.4 °C 1026 hPa SSE 2.4 km/h 5.6 km/h 98 % 0 mm
07:41 15.8 °C 15.4 °C 1026 hPa SE 3.2 km/h 8 km/h 98 % 0 mm
07:46 15.8 °C 15.5 °C 1026 hPa Calm   8 km/h 98 % 0 mm
07:51 15.8 °C 15.4 °C 1026 hPa Calm   4.8 km/h 98 % 0 mm
07:56 15.8 °C 15.4 °C 1026 hPa Calm   4.8 km/h 98 % 0 mm
08:00 15.8 °C 15.4 °C 1026 hPa SE 1.8 km/h 5.6 km/h 98 % 0 mm
08:06 15.8 °C 15.5 °C 1026.3 hPa Calm   6.4 km/h 98 % 0 mm
08:11 15.9 °C 15.6 °C 1026 hPa SE 3.2 km/h 8 km/h 98 % 0 mm
08:16 16 °C 15.7 °C 1026 hPa SE 5 km/h 6.4 km/h 98 % 0 mm
08:21 16.1 °C 15.8 °C 1026 hPa SE 0.8 km/h 1.9 km/h 98 % 0 mm
08:26 16.2 °C 15.9 °C 1026 hPa Calm   3.7 km/h 98 % 0 mm
08:31 16.3 °C 16 °C 1026.3 hPa Calm   1.9 km/h 98 % 0 mm
08:36 16.4 °C 16.1 °C 1026.3 hPa SE 1.6 km/h 5.6 km/h 98 % 0 mm
08:41 16.6 °C 16.2 °C 1026 hPa SE 0.5 km/h 5.6 km/h 98 % 0 mm
08:46 16.8 °C 16.4 °C 1026 hPa SE 2.7 km/h 5.6 km/h 98 % 0 mm
08:51 16.9 °C 16.6 °C 1026 hPa SE 1.3 km/h 7.4 km/h 98 % 0 mm
08:56 17.1 °C 16.7 °C 1026 hPa SE 0.5 km/h 3.7 km/h 98 % 0 mm
09:01 17.2 °C 16.9 °C 1026 hPa SE 5.5 km/h 9.3 km/h 98 % 0 mm
09:06 17.3 °C 16.9 °C 1025.6 hPa SE 3.7 km/h 7.4 km/h 98 % 0 mm
09:11 17.3 °C 17 °C 1026 hPa SE 4.7 km/h 9.3 km/h 98 % 0 mm
09:16 17.4 °C 17.1 °C 1026 hPa SSE 5.6 km/h 11.1 km/h 98 % 0 mm
09:21 17.5 °C 17.2 °C 1026 hPa SE 4.3 km/h 7.4 km/h 98 % 0 mm
09:26 17.6 °C 17.3 °C 1026 hPa SE 5.6 km/h 11.3 km/h 98 % 0 mm
09:31 17.7 °C 17.3 °C 1025.6 hPa SE 6 km/h 13 km/h 98 % 0 mm
09:36 17.8 °C 17.4 °C 1025.6 hPa SE 3.9 km/h 5.6 km/h 98 % 0 mm
09:41 17.8 °C 17.5 °C 1025.6 hPa SE 2.1 km/h 5.6 km/h 98 % 0 mm
09:46 18 °C 17.7 °C 1025.6 hPa Calm     98 % 0 mm
09:51 18.1 °C 17.8 °C 1025.6 hPa SE 4.2 km/h 6.4 km/h 98 % 0 mm
09:56 18.3 °C 17.9 °C 1025.3 hPa Calm   5.6 km/h 98 % 0 mm
10:01 18.5 °C 18.2 °C 1025.3 hPa SE 10 km/h 14.8 km/h 98 % 0 mm
10:06 18.7 °C 18.3 °C 1025.3 hPa SE 8.4 km/h 13 km/h 98 % 0 mm
10:11 18.9 °C 18.4 °C 1024.9 hPa SSE 3.1 km/h 5.6 km/h 97 % 0 mm
10:16 19.1 °C 18.4 °C 1024.9 hPa SE 5.1 km/h 8 km/h 96 % 0 mm
10:21 19.3 °C 18.5 °C 1024.9 hPa SSE 0.5 km/h 14.8 km/h 95 % 0 mm
10:26 19.6 °C 18.4 °C 1024.9 hPa SE 6.6 km/h 17.7 km/h 93 % 0 mm
10:31 19.8 °C 18.5 °C 1024.9 hPa SSE 10.1 km/h 14.8 km/h 92 % 0 mm
10:37 20.1 °C 18.4 °C 1024.9 hPa SSE 6.4 km/h 13 km/h 90 % 0 mm
10:42 20.2 °C 18.7 °C 1024.9 hPa SE 1.1 km/h 7.4 km/h 91 % 0 mm
10:47 20.4 °C 18.5 °C 1024.9 hPa East 8.9 km/h 13 km/h 89 % 0 mm
10:52 20.6 °C 18.6 °C 1024.9 hPa ESE 5.5 km/h 18.5 km/h 88 % 0 mm
10:57 20.8 °C 18.6 °C 1024.6 hPa SSE 11.4 km/h 18.5 km/h 87 % 0 mm
11:02 21 °C 18.4 °C 1024.6 hPa SE 6 km/h 9.3 km/h 85 % 0 mm
11:07 21.2 °C 18.8 °C 1024.6 hPa SSE 8.2 km/h 13 km/h 86 % 0 mm
11:12 21.4 °C 18.8 °C 1024.6 hPa SE 2.6 km/h 5.6 km/h 85 % 0 mm
11:17 21.7 °C 18.7 °C 1024.6 hPa SE 6 km/h 11.1 km/h 83 % 0 mm
11:22 22 °C 18.8 °C 1024.6 hPa SSE 4.7 km/h 11.1 km/h 82 % 0 mm
11:27 22.4 °C 19.2 °C 1024.3 hPa SE 5.1 km/h 7.4 km/h 82 % 0 mm
11:32 22.8 °C 18.7 °C 1024.3 hPa SSE 1.8 km/h 7.4 km/h 78 % 0 mm
11:37 23 °C 18.9 °C 1024.3 hPa ESE 2.9 km/h 8 km/h 78 % 0 mm
11:42 23.2 °C 18.9 °C 1024.3 hPa SE 5.6 km/h 11.1 km/h 77 % 0 mm
11:47 23.2 °C 18.9 °C 1024.3 hPa SE 5 km/h 9.3 km/h 77 % 0 mm
11:52 23.2 °C 18.8 °C 1024.3 hPa SE 5.5 km/h 17.7 km/h 76 % 0 mm
11:57 23.3 °C 18.8 °C 1024.3 hPa SE 4.5 km/h 6.4 km/h 76 % 0 mm
12:02 23.3 °C 18.9 °C 1023.9 hPa SSE 3.2 km/h 9.3 km/h 76 % 0 mm
12:07 23.7 °C 18.9 °C 1023.9 hPa SE 4.2 km/h 6.4 km/h 75 % 0 mm
12:12 24.1 °C 19.6 °C 1023.9 hPa SE 0.6 km/h 5.6 km/h 76 % 0 mm
12:18 24.5 °C 19.1 °C 1023.9 hPa SSE 2.3 km/h 14.8 km/h 72 % 0 mm
12:23 24.6 °C 19.2 °C 1023.9 hPa SE 2.3 km/h 5.6 km/h 72 % 0 mm
12:28 24.3 °C 18.5 °C 1023.6 hPa SE 4.3 km/h 16.7 km/h 70 % 0 mm
12:33 24.1 °C 18.2 °C 1023.6 hPa SSE 10 km/h 14.8 km/h 70 % 0 mm
12:38 23.7 °C 17.9 °C 1023.6 hPa SSE 8 km/h 20.4 km/h 70 % 0 mm
12:43 23.4 °C 18.1 °C 1023.6 hPa NW 5.5 km/h 11.1 km/h 72 % 0 mm
12:48 23.3 °C 18 °C 1023.2 hPa South 2.7 km/h 5.6 km/h 72 % 0 mm
12:53 23.3 °C 18.2 °C 1023.2 hPa SSE 1.6 km/h 3.7 km/h 73 % 0 mm
12:58 23.3 °C 17.9 °C 1023.2 hPa SSE 6.8 km/h 11.1 km/h 72 % 0 mm
13:03 23.2 °C 18.1 °C 1022.9 hPa SE 1.3 km/h 3.7 km/h 73 % 0 mm
13:08 23.3 °C 18.4 °C 1022.9 hPa South 6.3 km/h 9.3 km/h 74 % 0 mm
13:13 23.4 °C 17.8 °C 1022.9 hPa SE 9 km/h 16.7 km/h 71 % 0 mm
13:18 23.3 °C 17.5 °C 1022.9 hPa SSE 8.5 km/h 18.5 km/h 70 % 0 mm
13:23 23.2 °C 17.7 °C 1022.9 hPa SSE 3.4 km/h 7.4 km/h 71 % 0 mm
13:28 23.2 °C 17.7 °C 1022.9 hPa SSW 9.3 km/h 16.7 km/h 71 % 0 mm
13:33 23.2 °C 17.6 °C 1022.9 hPa SSE 4.5 km/h 9.3 km/h 71 % 0 mm
13:38 23.2 °C 17.6 °C 1022.9 hPa SE 2.7 km/h 9.3 km/h 71 % 0 mm
13:43 23.1 °C 17.3 °C 1022.9 hPa SE 8.9 km/h 16.7 km/h 70 % 0 mm
13:48 22.9 °C 17.4 °C 1022.9 hPa SSE 5.8 km/h 20.4 km/h 71 % 0 mm
13:53 22.8 °C 17.4 °C 1022.9 hPa SE 4.3 km/h 8 km/h 72 % 0 mm
13:58 22.7 °C 17.3 °C 1022.9 hPa SE 4.5 km/h 13 km/h 72 % 0 mm
14:03 22.6 °C 17.5 °C 1022.9 hPa SSE 1.1 km/h 5.6 km/h 73 % 0 mm
14:08 22.6 °C 17.7 °C 1022.6 hPa SE 2.4 km/h 6.4 km/h 74 % 0 mm
14:13 22.6 °C 17.7 °C 1022.9 hPa SW 4.2 km/h 7.4 km/h 74 % 0 mm
14:18 22.6 °C 17.9 °C 1022.6 hPa SSE 3.1 km/h 11.1 km/h 75 % 0 mm
14:23 22.4 °C 17.8 °C 1022.6 hPa SE 6 km/h 14.8 km/h 75 % 0 mm
14:29 22.4 °C 18 °C 1022.6 hPa SSE 1.8 km/h 3.7 km/h 76 % 0 mm
14:34 22.3 °C 17.9 °C 1022.6 hPa SSE 6.4 km/h 13 km/h 76 % 0 mm
14:39 22.3 °C 18.1 °C 1022.2 hPa SSE 6 km/h 13 km/h 77 % 0 mm
14:44 22.3 °C 18.1 °C 1022.2 hPa South 2.3 km/h 5.6 km/h 77 % 0 mm
14:49 22.4 °C 18.4 °C 1022.2 hPa SE 1.9 km/h 4.8 km/h 78 % 0 mm
14:54 22.6 °C 18.5 °C 1022.2 hPa SE 4 km/h 14.5 km/h 78 % 0 mm
14:59 22.7 °C 18.4 °C 1022.2 hPa SE 4 km/h 11.1 km/h 77 % 0 mm
15:04 22.7 °C 18.5 °C 1021.9 hPa SE 3.2 km/h 7.4 km/h 77 % 0 mm
15:09 22.8 °C 18.3 °C 1021.9 hPa SE 10.9 km/h 16.7 km/h 76 % 0 mm
15:14 22.8 °C 18.2 °C 1021.9 hPa SE 5.1 km/h 12.9 km/h 75 % 0 mm
15:19 22.8 °C 18.1 °C 1021.9 hPa SSE 7.2 km/h 13 km/h 75 % 0 mm
15:24 22.7 °C 18.1 °C 1021.6 hPa SSE 5.5 km/h 16.7 km/h 75 % 0 mm
15:29 22.7 °C 18.3 °C 1021.6 hPa SSE 5.3 km/h 14.8 km/h 76 % 0 mm
15:34 22.6 °C 17.9 °C 1021.6 hPa SE 10.1 km/h 16.7 km/h 75 % 0 mm
15:39 22.6 °C 18.1 °C 1021.6 hPa SSW 1.4 km/h 7.4 km/h 76 % 0 mm
15:44 22.6 °C 17.9 °C 1021.6 hPa South 4.5 km/h 6.4 km/h 75 % 0 mm
15:49 22.6 °C 17.9 °C 1021.6 hPa SSE 3.1 km/h 8 km/h 75 % 0 mm
15:54 22.6 °C 18.1 °C 1021.2 hPa SSE 3.2 km/h 5.6 km/h 76 % 0 mm
15:59 22.6 °C 18.1 °C 1020.9 hPa ESE 5.1 km/h 7.4 km/h 76 % 0 mm
16:04 22.5 °C 18.1 °C 1020.9 hPa SSE 6 km/h 18.5 km/h 76 % 0 mm
16:09 22.4 °C 17.9 °C 1020.9 hPa SE 9.3 km/h 16.7 km/h 76 % 0 mm
16:14 22.4 °C 18.2 °C 1020.9 hPa South 0.6 km/h 3.7 km/h 77 % 0 mm
16:19 22.3 °C 18.1 °C 1020.5 hPa Calm     77 % 0 mm
16:24 22.3 °C 18.1 °C 1020.9 hPa South 1.4 km/h 3.7 km/h 77 % 0 mm
16:29 22.2 °C 18 °C 1020.9 hPa SE 1 km/h 5.6 km/h 77 % 0 mm
16:34 22.2 °C 18 °C 1020.9 hPa SE 0.6 km/h 5.6 km/h 77 % 0 mm
16:44 22.1 °C 18.1 °C 1020.5 hPa SSE 1.1 km/h 3.2 km/h 78 % 0 mm
16:49 22.1 °C 18.1 °C 1020.5 hPa SSE 4.3 km/h 9.7 km/h 78 % 0 mm
16:54 21.9 °C 17.9 °C 1020.5 hPa SE 5.6 km/h 13 km/h 78 % 0 mm
16:59 21.8 °C 17.8 °C 1021.2 hPa SE 2.1 km/h 5.6 km/h 78 % 0 mm
17:04 21.7 °C 17.9 °C 1020.5 hPa SE 3.4 km/h 5.6 km/h 79 % 0 mm
17:09 21.7 °C 17.9 °C 1020.5 hPa SE 9.3 km/h 13 km/h 79 % 0 mm
17:14 21.6 °C 17.8 °C 1020.9 hPa SSW 3.7 km/h 5.6 km/h 79 % 0 mm
17:19 21.4 °C 17.7 °C 1020.5 hPa ESE 6.6 km/h 16.7 km/h 79 % 0 mm
17:24 21.3 °C 17.7 °C 1020.5 hPa Calm   5.6 km/h 80 % 0 mm
17:29 21.3 °C 17.7 °C 1020.5 hPa SSE 6.1 km/h 9.3 km/h 80 % 0 mm
17:34 21.2 °C 17.6 °C 1020.5 hPa SSE 1.9 km/h 5.6 km/h 80 % 0 mm
17:39 21.1 °C 17.7 °C 1020.5 hPa SE 7.6 km/h 11.1 km/h 81 % 0 mm
17:44 20.9 °C 17.5 °C 1020.5 hPa SE 5.3 km/h 14.8 km/h 81 % 0 mm
17:49 20.8 °C 17.4 °C 1020.5 hPa SSE 4.8 km/h 9.7 km/h 81 % 0 mm
17:54 20.7 °C 17.5 °C 1020.2 hPa SSE 2.9 km/h 9.3 km/h 82 % 0 mm
17:59 20.6 °C 17.4 °C 1020.2 hPa ESE 4.2 km/h 9.7 km/h 82 % 0 mm
18:04 20.6 °C 17.6 °C 1019.9 hPa SE 5.6 km/h 9.3 km/h 83 % 0 mm
18:09 20.4 °C 17.4 °C 1019.9 hPa SE 4.7 km/h 5.6 km/h 83 % 0 mm
18:15 20.3 °C 17.3 °C 1019.9 hPa SE 2.3 km/h 7.4 km/h 83 % 0 mm
18:20 20.3 °C 17.5 °C 1019.9 hPa SE 6 km/h 11.1 km/h 84 % 0 mm
18:25 20.2 °C 17.4 °C 1019.9 hPa SSE 3.2 km/h 9.3 km/h 84 % 0 mm
18:30 20.2 °C 17.4 °C 1019.9 hPa SE 1.6 km/h 7.4 km/h 84 % 0 mm
18:35 20.2 °C 17.4 °C 1019.9 hPa SSE 6.1 km/h 14.8 km/h 84 % 0 mm
18:40 20.1 °C 17.3 °C 1019.9 hPa SE 3.5 km/h 14.8 km/h 84 % 0 mm
18:45 20.1 °C 17.3 °C 1019.9 hPa SE 3.5 km/h 5.6 km/h 84 % 0 mm
18:50 20 °C 17.4 °C 1019.9 hPa SE 5.5 km/h 8 km/h 85 % 0 mm
18:55 20 °C 17.4 °C 1019.9 hPa SSE 2.1 km/h 7.4 km/h 85 % 0 mm
19:00 20 °C 17.4 °C 1019.9 hPa SE 6.9 km/h 9.3 km/h 85 % 0 mm
19:05 19.9 °C 17.3 °C 1019.9 hPa SE 1.6 km/h 5.6 km/h 85 % 0 mm
19:10 19.9 °C 17.3 °C 1019.9 hPa SE 1.9 km/h 5.6 km/h 85 % 0 mm
19:15 19.9 °C 17.3 °C 1019.5 hPa SE 5.8 km/h 11.3 km/h 85 % 0 mm
19:20 19.9 °C 17.5 °C 1019.5 hPa ESE 1.6 km/h 5.6 km/h 86 % 0 mm
19:25 19.8 °C 17.4 °C 1019.5 hPa SE 4 km/h 5.6 km/h 86 % 0 mm
19:30 19.8 °C 17.4 °C 1019.5 hPa SE 3.2 km/h 9.3 km/h 86 % 0 mm
19:35 19.8 °C 17.4 °C 1019.5 hPa SE 1.4 km/h 5.6 km/h 86 % 0 mm
19:40 19.8 °C 17.4 °C 1019.5 hPa ESE 3.7 km/h 14.8 km/h 86 % 0 mm
19:45 19.8 °C 17.4 °C 1019.5 hPa ESE 0.3 km/h 1.9 km/h 86 % 0 mm
19:51 19.7 °C 17.3 °C 1019.2 hPa SE 4.2 km/h 7.4 km/h 86 % 0 mm
19:56 19.7 °C 17.5 °C 1019.2 hPa SE 1.6 km/h 9.7 km/h 87 % 0 mm
20:01 19.7 °C 17.4 °C 1019.2 hPa SE 2.1 km/h 9.3 km/h 87 % 0 mm
20:06 19.7 °C 17.4 °C 1019.2 hPa SE 1.6 km/h 9.7 km/h 87 % 0 mm
20:11 19.6 °C 17.4 °C 1018.8 hPa SSE 3.5 km/h 8 km/h 87 % 0 mm
20:16 19.6 °C 17.4 °C 1018.8 hPa SE 4.8 km/h 11.3 km/h 87 % 0 mm
20:21 19.6 °C 17.4 °C 1018.8 hPa SE 1.6 km/h 11.3 km/h 87 % 0 mm
20:31 19.6 °C 17.6 °C 1018.5 hPa SE 3.2 km/h 14.5 km/h 88 % 0 mm
20:36 19.6 °C 17.6 °C 1018.8 hPa SE 3.2 km/h 14.5 km/h 88 % 0 mm
20:41 19.7 °C 17.6 °C 1018.5 hPa SE 3.2 km/h 12.9 km/h 88 % 0 mm
20:46 19.7 °C 17.6 °C 1018.5 hPa SE 8 km/h 12.9 km/h 88 % 0 mm
20:51 19.7 °C 17.7 °C 1018.5 hPa SE 1.6 km/h 9.7 km/h 88 % 0 mm
20:56 19.8 °C 17.7 °C 1018.5 hPa SSE 4.8 km/h 16.1 km/h 88 % 0 mm
21:01 19.8 °C 17.8 °C 1018.5 hPa SSE 2.1 km/h 5.6 km/h 88 % 0 mm
21:06 19.9 °C 17.8 °C 1018.2 hPa SE 4.8 km/h 11.3 km/h 88 % 0 mm
21:11 19.9 °C 18 °C 1018.2 hPa SE 9.7 km/h 20.9 km/h 89 % 0 mm
21:16 19.9 °C 18.1 °C 1018.2 hPa SE 4.8 km/h 19.3 km/h 89 % 0 mm
21:21 20.1 °C 18.2 °C 1018.2 hPa SE 4.8 km/h 12.9 km/h 89 % 0 mm
21:26 20.1 °C 18.2 °C 1018.2 hPa SE 8 km/h 12.9 km/h 89 % 0 mm
21:31 20.1 °C 18.2 °C 1018.2 hPa SE 3.2 km/h 19.3 km/h 89 % 0 mm
21:36 20.1 °C 18.2 °C 1018.2 hPa SE 8 km/h 19.3 km/h 89 % 0 mm
21:42 20.2 °C 18.3 °C 1018.2 hPa SSE 9.2 km/h 16.7 km/h 89 % 0 mm
21:47 20.2 °C 18.6 °C 1018.2 hPa SSE 6.9 km/h 9.7 km/h 90 % 0 mm
21:49 20.2 °C 18.6 °C 1017.8 hPa SE 5.8 km/h 14.8 km/h 90 % 0 mm
21:54 20.3 °C 18.6 °C 1018.2 hPa SSE 2.7 km/h 14.8 km/h 90 % 0 mm
21:59 20.3 °C 18.6 °C 1017.8 hPa SE 4.3 km/h 9.3 km/h 90 % 0 mm
22:09 20.4 °C 18.6 °C 1017.8 hPa SE 7.4 km/h 11.1 km/h 89 % 0 mm
22:14 20.6 °C 18.7 °C 1017.8 hPa SSE 3.1 km/h 9.3 km/h 89 % 0 mm
22:19 20.6 °C 18.7 °C 1017.8 hPa SSE 8.7 km/h 16.7 km/h 89 % 0 mm
22:24 20.7 °C 18.7 °C 1017.5 hPa SE 9.7 km/h 18.5 km/h 88 % 0 mm
22:29 20.7 °C 18.7 °C 1017.8 hPa SSE 5.5 km/h 9.3 km/h 88 % 0 mm
22:34 20.8 °C 18.7 °C 1017.8 hPa SSE 10 km/h 14.5 km/h 88 % 0 mm
22:39 20.8 °C 18.7 °C 1017.8 hPa ESE 9.3 km/h 16.1 km/h 88 % 0 mm
22:44 20.8 °C 18.7 °C 1017.5 hPa SE 7.4 km/h 14.8 km/h 88 % 0 mm
22:46 20.8 °C 18.7 °C 1017.5 hPa SSE 6.6 km/h 9.3 km/h 88 % 0 mm
22:51 20.8 °C 18.7 °C 1017.5 hPa SE 1 km/h 5.6 km/h 88 % 0 mm
22:56 20.8 °C 18.8 °C 1017.5 hPa SSE 5.3 km/h 13 km/h 88 % 0 mm
23:01 20.9 °C 18.8 °C 1017.5 hPa South 4.8 km/h 16.7 km/h 88 % 0 mm
23:06 20.9 °C 18.9 °C 1017.5 hPa SE 10.1 km/h 16.7 km/h 88 % 0 mm
23:11 21 °C 18.9 °C 1017.2 hPa SE 3.2 km/h 16.7 km/h 88 % 0 mm
23:16 21 °C 18.9 °C 1017.2 hPa SSE 2.4 km/h 6.4 km/h 88 % 0 mm
23:21 21.1 °C 18.8 °C 1016.8 hPa SE 5.6 km/h 20.4 km/h 87 % 0 mm
23:23 21.1 °C 18.9 °C 1016.8 hPa SSE 8.2 km/h 29 km/h 87 % 0 mm
23:26 21.1 °C 18.9 °C 1016.8 hPa SSE 6.4 km/h 13 km/h 87 % 0 mm
23:31 21.2 °C 18.9 °C 1016.8 hPa ESE 8.7 km/h 18.5 km/h 87 % 0 mm
23:36 21.2 °C 18.8 °C 1016.5 hPa SSE 11.6 km/h 20.4 km/h 86 % 0 mm
23:41 21.3 °C 18.8 °C 1016.5 hPa SE 12.6 km/h 24.1 km/h 86 % 0 mm
23:46 21.3 °C 18.8 °C 1016.1 hPa SE 6.8 km/h 16.7 km/h 86 % 0 mm
23:51 21.3 °C 18.8 °C 1016.1 hPa SE 2.3 km/h 11.1 km/h 86 % 0 mm
23:56 21.3 °C 18.8 °C 1016.1 hPa SSE 8.9 km/h 18.5 km/h 86 % 0 mm
Crab Meadow Weather
Compliments of Weather Underground - 3 mb

Script developed by  Jim McMurry - jmcmurry@mwt.net Adapted for the template by  Wim van der Kuil - Leuven-Template.eu

Recycling: We use over 80,000,000,000 aluminum soda cans every year.